Weather History for Dansville, NY

Change the Weather History Date:

Saturday, November 19, 2011

  Actual Average Record
Temperature  
Mean Temperature 47 °F -  
Max Temperature 55 °F 48 °F 73 °F (1958)
Min Temperature 39 °F 29 °F 12 °F (2008)
Degree Days  
Heating Degree Days 18    
Moisture  
Dew Point 22 °F    
Average Humidity 36    
Maximum Humidity 46    
Minimum Humidity 25    
Precipitation  
Precipitation 0.00 in - - ()
Sea Level Pressure  
Sea Level Pressure 30.16 in    
Wind  
Wind Speed 11 mph (SSE)    
Max Wind Speed 15 mph    
Max Gust Speed 23 mph    
Visibility 10 miles    
Events      
Averages and records for this station are not official NWS values.
T = Trace of Precipitation, MM = Missing Value Source: NWS Daily Summary

Daily Weather History Graph

Daily Weather History Graph

Search for Another Location

Airport:

Trip Planner

Search our weather history database for the weather conditions in past years. The results will help you decide how hot, cold, wet, or windy it might be!

Date:

Astronomy

Nov. 19, 2011 Rise Set
Actual Time 7:06 AM EST 4:45 PM EST
Civil Twilight 6:36 AM EST 5:15 PM EST
Nautical Twilight 6:01 AM EST 5:50 PM EST
Astronomical Twilight 5:28 AM EST 6:23 PM EST
Moon 12:17 AM EST (11/19) 1:08 PM EST (11/19)
Length of Visible Light 10h 39m
Length of Day
9h 38m
Last Quarter, 38% of the Moon is Illuminated
Nov 19
Last Quarter
Nov 25
New
Dec 2
First Quarter
Dec 10
Full
Dec 17
Last Quarter

Hourly Weather History & Observations

Time (EST) Temp. Windchill Dew Point Humidity Pressure Visibility Wind Dir Wind Speed Gust Speed Precip Events Conditions
12:54 AM 41.0 °F 33.9 °F 15.1 °F 35% 30.21 in 10.0 mi SE 12.7 mph 21.9 mph N/A   Overcast
1:54 AM 42.1 °F 34.9 °F 16.0 °F 35% 30.21 in 10.0 mi SSE 13.8 mph 20.7 mph N/A   Overcast
3:54 AM 39.9 °F 33.9 °F 16.0 °F 38% 30.20 in 10.0 mi SE 9.2 mph - N/A   Scattered Clouds
4:54 AM 42.1 °F 36.6 °F 15.1 °F 34% 30.23 in 10.0 mi East 9.2 mph - N/A   Overcast
5:54 AM 42.1 °F 36.6 °F 16.0 °F 35% 30.23 in 10.0 mi SSE 9.2 mph - N/A   Mostly Cloudy
6:54 AM 39.0 °F 33.4 °F 16.0 °F 39% 30.24 in 10.0 mi SSE 8.1 mph - N/A   Overcast
7:54 AM 39.9 °F 34.5 °F 19.0 °F 43% 30.25 in 10.0 mi SE 8.1 mph - N/A   Scattered Clouds
8:54 AM 46.9 °F - 19.0 °F 33% 30.23 in 10.0 mi South 10.4 mph - N/A   Mostly Cloudy
9:54 AM 51.1 °F - 19.0 °F 28% 30.22 in 10.0 mi South 8.1 mph 18.4 mph N/A   Clear
10:54 AM 51.1 °F - 21.9 °F 32% 30.20 in 10.0 mi SSE 10.4 mph 19.6 mph N/A   Clear
11:54 AM 52.0 °F - 21.0 °F 30% 30.18 in 10.0 mi South 12.7 mph 19.6 mph N/A   Clear
12:54 PM 55.9 °F - 19.9 °F 25% 30.14 in 10.0 mi South 10.4 mph 21.9 mph N/A   Clear
1:54 PM 54.0 °F - 24.1 °F 31% 30.12 in 10.0 mi SSE 12.7 mph - N/A   Clear
2:54 PM 55.9 °F - 24.1 °F 29% 30.10 in 10.0 mi SSE 9.2 mph 18.4 mph N/A   Clear
3:54 PM 53.1 °F - 27.0 °F 37% 30.11 in 10.0 mi SE 5.8 mph - N/A   Clear
4:54 PM 50.0 °F - 28.0 °F 43% 30.09 in 10.0 mi SE 5.8 mph - N/A   Partly Cloudy
5:54 PM 53.1 °F - 28.9 °F 40% 30.11 in 10.0 mi SE 9.2 mph - N/A   Mostly Cloudy
8:54 PM 52.0 °F - 30.0 °F 43% 30.09 in 10.0 mi SSE 11.5 mph - 0.00 in   Mostly Cloudy
9:54 PM 51.1 °F - 30.9 °F 46% 30.08 in 10.0 mi SE 12.7 mph - 0.00 in   Overcast
10:54 PM 50.0 °F - 28.9 °F 44% 30.05 in 10.0 mi SE 15.0 mph - N/A   Scattered Clouds
11:54 PM 51.1 °F - 28.9 °F 43% 30.02 in 10.0 mi SSE 12.7 mph 23.0 mph N/A   Overcast